Total_Precipitation_Accumulation
4.90 3.88 3.01 2.30 3.00 4.31 4.66 4.21 4.55 3.92 2.78 1.83 2.38 1.86 1.29 0.66 0.49 0.63 0.82 0.75 0.57 0.19 0.20 0.23 0.15 0.18 0.22 0.11 0.05 0.08 0.21 0.47
5.83 4.87 3.17 1.55 1.91 2.21 2.57 3.89 2.86 2.43 3.26 2.85 2.21 1.65 1.26 1.03 0.89 0.92 0.94 0.86 1.04 1.24 1.04 0.92 0.59 0.40 0.36 0.27 0.06 0.04 0.20 0.46
6.30 4.37 3.02 1.54 1.02 1.13 1.13 2.31 2.94 2.50 1.39 2.25 2.28 1.65 1.42 1.38 1.24 1.33 1.62 1.48 1.36 0.91 0.69 0.50 0.43 0.42 0.40 0.43 0.34 0.16 0.21 0.38
5.26 4.51 3.12 2.22 1.68 1.22 0.81 1.15 2.07 2.72 1.76 1.18 1.51 1.49 1.23 1.28 1.41 1.36 1.37 1.41 1.13 0.86 0.73 0.56 0.54 0.39 0.36 0.42 0.40 0.38 0.27 0.26
2.40 3.69 4.18 3.19 1.94 1.44 0.80 0.91 1.63 2.68 2.43 1.13 1.10 1.30 1.24 0.91 0.82 1.11 1.14 1.46 1.16 1.13 0.80 0.60 0.51 0.40 0.35 0.33 0.35 0.35 0.30 0.33
1.85 2.29 2.34 2.62 2.76 1.66 0.91 0.67 1.27 1.95 2.46 1.16 1.12 0.97 1.13 0.71 0.46 0.55 0.76 0.88 1.09 1.53 1.44 1.04 0.96 0.69 0.54 0.54 0.52 0.66 0.70 0.55
1.31 1.16 0.95 1.10 1.91 2.52 1.51 1.07 1.31 1.87 2.45 1.25 0.86 0.71 0.83 0.64 0.48 0.54 0.48 0.48 0.69 0.93 1.21 1.21 1.24 1.18 1.26 1.16 0.94 0.74 0.85 1.00
0.95 0.75 0.81 0.82 1.14 1.82 2.10 1.54 1.56 2.00 2.18 1.56 1.24 0.96 0.83 0.69 0.55 0.54 0.52 0.53 0.64 0.85 1.19 1.29 1.35 1.53 1.30 0.96 0.94 0.67 0.67 1.06
1.04 1.28 0.65 0.84 0.95 1.24 1.77 1.54 1.35 1.71 2.10 1.93 1.41 1.21 0.82 0.83 0.76 0.72 0.61 0.60 0.67 0.91 1.16 1.29 1.07 1.02 1.11 1.34 1.56 1.46 0.91 0.60
0.95 1.55 0.97 0.91 0.89 1.05 1.36 1.41 1.29 1.15 1.38 1.71 1.55 1.39 1.24 1.04 0.81 0.89 1.04 0.90 0.78 0.89 1.10 1.63 1.50 1.09 0.74 0.77 1.05 1.20 1.09 1.13
0.72 1.03 1.20 1.18 0.97 0.96 0.93 0.94 1.19 0.90 1.04 1.11 1.35 1.86 1.91 1.52 1.42 1.52 1.48 1.47 1.48 1.66 1.85 1.97 1.56 1.26 0.93 0.73 0.69 0.66 0.53 0.46
0.86 0.95 1.10 1.10 0.81 0.67 0.68 0.81 0.93 0.99 0.96 1.01 1.29 1.32 1.35 1.48 1.67 1.88 1.90 1.71 1.38 1.15 1.23 1.35 1.31 1.17 1.04 0.75 0.70 0.48 0.38 0.25
0.50 0.77 0.94 0.65 0.41 0.36 0.41 0.49 0.59 0.96 1.04 0.77 1.01 1.26 1.25 1.18 1.47 2.23 2.38 1.57 1.10 1.16 1.42 1.42 1.25 1.10 1.48 1.13 0.81 0.54 0.37 0.24
0.49 0.34 0.36 0.43 0.37 0.23 0.16 0.22 0.36 0.70 1.03 0.82 0.86 0.98 1.06 1.20 1.00 1.10 1.67 1.96 1.82 1.39 1.38 1.62 1.45 1.36 1.53 1.49 1.30 1.22 0.73 0.40
0.30 0.17 0.13 0.22 0.41 0.56 0.53 0.34 0.41 1.14 1.44 1.12 0.90 0.99 1.03 1.14 1.10 1.02 1.18 1.84 1.87 1.50 1.15 1.35 1.76 1.63 1.53 1.70 1.67 1.11 0.77 0.47
0.29 0.15 0.08 0.16 0.26 0.45 0.67 0.70 0.53 0.74 1.22 1.09 0.88 1.17 1.13 0.99 1.17 1.22 1.15 1.16 1.48 1.49 1.26 1.15 1.73 1.70 2.19 1.64 1.37 1.35 1.52 1.15
0.23 0.22 0.28 0.18 0.29 0.51 0.82 0.90 0.89 1.01 1.45 1.74 1.40 1.33 1.41 1.39 1.36 1.52 1.59 1.72 1.34 1.86 1.83 1.78 2.03 1.85 1.44 1.62 1.83 1.76 2.06 2.19
0.19 0.17 0.28 0.33 0.50 0.62 0.68 0.79 0.76 0.98 1.37 2.03 2.35 2.12 1.93 1.72 1.64 1.58 1.52 1.61 1.74 2.00 2.42 2.53 2.58 2.34 1.96 1.86 1.92 1.93 1.62 1.92
0.20 0.20 0.32 0.37 0.50 0.61 0.68 0.86 1.11 1.09 1.16 1.75 2.37 2.99 3.02 2.65 2.54 2.13 1.87 1.65 1.73 2.09 2.69 2.98 3.34 3.41 3.19 2.69 2.32 2.13 2.07 2.25
0.34 0.33 0.50 0.49 0.58 0.79 0.80 0.89 1.10 1.38 1.26 1.41 2.19 2.60 2.84 2.74 2.95 3.20 3.08 2.80 2.55 2.35 2.49 2.55 2.62 2.90 3.65 4.14 4.15 3.34 3.10 3.21